Location: Sungai Bunut
(2.6333°N, 113.7333°E)
Time: 01:41:02
(UTC+00:00)

S-56A Canister/Altair - Pass Details

Date: 07 December 2023
Orbit: 640 x 2488 km, 38.9° (Epoch: 24 February)

Event Time Altitude Azimuth Distance (km) Brightness Sun altitude
Rises 23:40:59 0° 232° (SW) 5,369 11.6 18.3°
Reaches altitude 10° 23:44:58 10° 233° (SW) 4,093 11.0 19.2°
Maximum altitude 23:55:10 75° 317° (NW) 1,316 8.9 21.5°
Drops below altitude 10° 00:01:45 10° 42° (NE) 2,711 10.6 23.0°
Sets 00:03:55 0° 44° (NE) 3,482 11.1 23.5°
